User: anonymous   Login
Location: Gniazdowice
(50.2124°N, 20.2673°E)
Time: 12:38:44
(UTC+00:00)
Language:

COBE Rocket - Orbit

View from above orbital plane
View from above orbital plane
View from above satellite
View from above satellite

Ground track
Ground track

The orbit data is extracted from the following two-line orbital elements,

1 20323U 89089B   24200.88607750  .00000952  00000-0  24970-3 0  9994
2 20323  97.1160 130.6729 0069361 211.2620 148.4444 14.49588719808947
Epoch (UTC): 18 July 2024 21:15:57
Eccentricity: 0.0069361
inclination: 97.1160°
perigee height: 678 km
apogee height: 776 km
right ascension of ascending node: 130.6729°
argument of perigee: 211.2620°
revolutions per day: 14.49588719
mean anomaly at epoch: 148.4444°
orbit number at epoch: 80894

The dashed part of the orbit path shows where the satellite is in the earth's shadow,  

DLR